This demonstration page uses our WeatherBlox Daily Observations layout. Learn more.

Left ArrowRight Arrow

36.19886, -115.1175

Hourly Observations for April 6, 2021

Temp ( °F °C ) Dew Point ( °F °C ) Humidity (%) Winds ( mph kmh ) Pressure ( in mb ) Visibility ( mi km ) Precip ( " mm )
12:53 am 00:53 Clear 74 23.3 10 -12.2 8 8 NW 26 43 29.67 1005 10 16 N/A
1:53 am 01:53 Clear 72 22.2 12 -11.1 10 10 NW 18 30 29.69 1005 10 16 0.00 0.00
2:53 am 02:53 Clear 69 20.6 12 -11.1 11 11 NNW 17 28 29.71 1006 10 16 N/A
3:53 am 03:53 Clear 69 20.6 9 -12.8 9 9 NNW 15 24 29.74 1007 10 16 N/A
4:53 am 04:53 Clear 69 20.6 7 -13.9 9 9 VRB 6 9 29.78 1008 10 16 N/A
5:53 am 05:53 Clear 69 20.6 8 -13.3 9 9 W 7 11 29.81 1009 10 16 N/A
6:53 am 06:53 Sunny 62 16.7 8 -13.3 12 12 NE 7 11 29.87 1011 10 16 N/A
7:53 am 07:53 Sunny 63 17.2 8 -13.3 11 11 N 15 24 29.90 1013 10 16 N/A
8:53 am 08:53 Sunny 66 18.9 8 -13.3 10 10 NE 13 20 29.92 1013 10 16 N/A
9:53 am 09:53 Sunny 69 20.6 9 -12.8 9 9 N 17 28 29.94 1014 10 16 N/A
10:53 am 10:53 Sunny 72 22.2 9 -12.8 8 8 N 16 26 29.95 1014 10 16 N/A
11:53 am 11:53 Sunny 74 23.3 8 -13.3 8 8 NE 13 20 29.93 1014 10 16 N/A
12:53 pm 12:53 Sunny 73 22.8 6 -14.4 7 7 SE 12 19 29.93 1014 10 16 N/A
1:53 pm 13:53 Sunny 74 23.3 6 -14.4 7 7 VRB 5 7 29.92 1013 10 16 N/A
2:53 pm 14:53 Sunny 76 24.4 6 -14.4 6 6 undefined N/A 29.91 1013 10 16 N/A
3:53 pm 15:53 Sunny 76 24.4 6 -14.4 6 6 N N/A 29.88 1012 10 16 N/A
4:53 pm 16:53 Sunny 77 25 5 -15 6 6 N N/A 29.88 1012 10 16 N/A
5:53 pm 17:53 Sunny 78 25.6 5 -15 6 6 ENE 5 7 29.88 1012 10 16 N/A
6:53 pm 18:53 Sunny 75 23.9 4 -15.6 6 6 E 5 7 29.91 1013 10 16 N/A
7:53 pm 19:53 Clear 73 22.8 5 -15 7 7 N N/A 29.92 1013 10 16 N/A
8:53 pm 20:53 Clear 73 22.8 8 -13.3 8 8 N N/A 29.93 1014 10 16 N/A
9:53 pm 21:53 Clear 69 20.6 11 -11.7 10 10 NNW 3 6 29.96 1014 10 16 N/A
10:53 pm 22:53 Clear 64 17.8 15 -9.4 15 15 NW 3 6 29.97 1015 10 16 N/A
11:53 pm 23:53 Clear 62 16.7 16 -8.9 17 17 NW 5 7 29.98 1015 10 16 N/A

Powered by AerisWeather